Regional Weather Roundup
Issued by NWS

Home | Current Version | Previous Version | Text Only | Print | Product List | Glossary Off
Versions: 1 2 3 4 5 6 7 8 9 10 11 12 13 14 15 16 17 18 19 20 21 22 23 24 25 26 27 28 29 30 31 32 33 34 35 36 37 38 39 40 41 42 43 44 45 46 47 48 49 50

000
ASUS43 KBIS 230310
RWRND

NORTH DAKOTA REGIONAL WEATHER ROUNDUP
NATIONAL WEATHER SERVICE BISMARCK ND
1000 PM CDT MON SEP 22 2014

NOTE: "FAIR" INDICATES FEW OR NO CLOUDS BELOW 12,000 FEET WITH NO
SIGNIFICANT WEATHER AND/OR OBSTRUCTIONS TO VISIBILITY.


NDZ001>003-009>011-017-230400-
NORTHWEST NORTH DAKOTA

CITY           SKY/WX    TMP DP  RH WIND       PRES   REMARKS
WILLISTON      CLEAR     68  50  52 SE6       29.88R
MINOT          CLEAR     61  49  64 SE6       29.93R
MINOT AFB      CLEAR     62  51  66 S10       29.92R
$$

NDZ018>021-031>035-040>046-230400-
SOUTHWEST NORTH DAKOTA

CITY           SKY/WX    TMP DP  RH WIND       PRES   REMARKS
BISMARCK       PTCLDY    64  50  60 SE9       29.95S
DICKINSON      PTCLDY    58  49  72 E9        29.89F
GARRISON         N/A     62  50  64 S3        29.93S
HETTINGER ARPT CLEAR     62  50  64 E10       29.91S
$$

NDZ004>008-012>016-024-026-027-054-230400-
NORTHEAST NORTH DAKOTA

CITY           SKY/WX    TMP DP  RH WIND       PRES   REMARKS
GRAND FORKS    CLEAR     58  49  72 SE7       30.03R
GRND FRKS AFB  CLEAR     57  49  75 S7        30.03S
DEVILS LAKE    CLEAR     59  50  72 SE7       29.99S
$$

NDZ022-023-025-028>030-036>039-047>053-230400-
SOUTHEAST NORTH DAKOTA

CITY           SKY/WX    TMP DP  RH WIND       PRES   REMARKS
FARGO          CLEAR     64  47  53 SE10      30.06R
JAMESTOWN      CLEAR     58  48  69 S9        30.02S
$$




USA.gov is the U.S. government's official web portal to all federal, state and local government web resources and services.